OBJECT E, 69576

Orbit data source: Space-Track

You're viewing an Uncataloged Satellite

Recently launched and/or uncataloged satellites may have evolving metadata. Metadata may include but not limited to: Owner, Maufacturer, Bus, Motor, and Mission.

OBJECT E, 69576 is a satellite owned by Zhongguo Xingwang (CN) in LEO that was launched on Wed, 17 Jun 2026 UTC via a CHANG ZHENG 12 launch vehicle from the Wenchang Satellite Launch Center (WSC). Unknown objects in Earth's orbit typically refer to objects detected orbiting the Earth but have not yet been identified or cataloged. These objects could be anything from previously untracked satellites, spent rocket stages, debris from satellite collisions, or even natural meteoroids temporarily captured by Earth's gravity.

Loading next visibility...
Identifier
69576, 2026-137E
Orbit
LEO
Country
Flag of CNCN / PRC
Related business
Manufacturer
YINNT
Mission
Operational spacecraft
Bus & Motor
XINGWANG Y, Unknown motor
Mass
~800 kg wet, ~800 kg dry
Launch date (UTC)
2026-06-17 (2 days ago)
Launch vehicle
CHANG ZHENG 12
Launch site
Wenchang Satellite Launch Center (WSC)
Object type
Unknown
Shape & HBR
Unknown
Radar Cross Section
RCS unknown

Expand to show TLE details & history
Last TLE update: 10 hours ago

TLE from 10 hours ago
0 OBJECT E
1 69576U 26137E   26170.38370889 -.00000123  00000-0  18761-4 0  9998
2 69576  50.0087 246.6656 0010812 239.1728 120.8108 13.92452968   339
Epoch: 2026-06-19T09:12Z
TLE epoch observation values (Epoch: 2026-06-19T09:12:32.448Z)
Latitude
-0.00001°
Longitude
-159.08307°
Altitude
924.618 km
Speed
7.389 km/s
True Right ascension
16h 26m 39s
True Declination
0° 00' 00"
Sunlit
Object was in full shadow at epoch
Visualization orbit readout
Latitude
Unknown
Longitude
Unknown
Altitude
Unknown
Speed
Unknown
Apparent Right ascension
Unknown
Apparent Declination
Unknown
Sunlit
N/A
Visualization observer readout
Local Sidereal Time
05:48:38
Azimuth
Unknown
Elevation
Unknown
Doppler factor
Unknown
Orbital elements
Apogee altitude
928.665 km
Perigee altitude
912.881 km
Semi-major axis
7,298.91 km
Eccentricity
0.00108
Inclination
50.0087°
RAAN
246.6656°
Arg. of periapsis
239.1728°
True anomaly
120.91714°
Mean anomaly
120.8108°
Eccentric anomaly
120.86398°
Mean motion
3.48062 °/min
Orbital period
103.43 mins
BSTAR
0.000018761
Loading maneuver chart data...
Computing Atmospheric mass density...
Loading historical data...
Loading historical data...
Loading historical data...
Loading historical data...
Loading historical data...
Loading historical data...
Loading historical data...

Documentation

Showing up to 5 results
|